Weather History for Cucuta, Colombia

Change the Weather History Date:

Thursday, February 14, 2013

  Actual Average (SVSA) Record (SVSA)
Temperature  
Mean Temperature 78 °F -  
Max Temperature 87 °F 89 °F 98 °F (2014)
Min Temperature 68 °F 70 °F 66 °F (2013)
Cooling Degree Days 12    
Growing Degree Days 28 (Base 50)    
Moisture  
Dew Point 69 °F    
Average Humidity 72    
Maximum Humidity 94    
Minimum Humidity 51    
Precipitation  
Precipitation 0.00 in 0.06 in - ()
Sea Level Pressure  
Sea Level Pressure 29.93 in    
Wind  
Wind Speed 3 mph ()    
Max Wind Speed 8 mph    
Max Gust Speed -    
Visibility 7.1 miles    
Events Fog    
Averages and records for this station are not official NWS values.
T = Trace of Precipitation, MM = Missing Value Source: Averaged Metar Reports

Daily Weather History Graph

Daily Weather History Graph

Search for Another Location

Airport:

Trip Planner

Search our weather history database for the weather conditions in past years. The results will help you decide how hot, cold, wet, or windy it might be!

Date:

Astronomy

Feb. 14, 2013 Rise Set
Actual Time 6:08 AM COT 6:00 PM COT
Civil Twilight 5:46 AM COT 6:21 PM COT
Nautical Twilight 5:21 AM COT 6:46 PM COT
Astronomical Twilight 4:57 AM COT 7:11 PM COT
Moon 9:13 AM COT (2/14) 9:49 PM COT (2/14)
Length of Visible Light 12h 35m
Length of Day
11h 52m
Waxing Crescent, 21% of the Moon is Illuminated
Feb 14
Waxing Crescent
Feb 17
First Quarter
Feb 25
Full
Mar 4
Last Quarter
Mar 11
New

Hourly Weather History & Observations

Time (COT) Temp. Heat Index Dew Point Humidity Pressure Visibility Wind Dir Wind Speed Gust Speed Precip Events Conditions
5:00 AM 69.8 °F - 66.2 °F 88% 29.96 in 6.2 mi Variable 2.3 mph - N/A   Scattered Clouds
5:30 AM 68.0 °F - 66.2 °F 94% 29.97 in 3.7 mi North 5.8 mph - N/A Fog Fog
6:00 AM 68.0 °F - 66.2 °F 94% 29.98 in 6.2 mi Variable 2.3 mph - N/A Fog Shallow Fog
7:00 AM 69 °F - 65 °F 85% 29.91 in 10 mi Calm Calm - -  
7:00 AM 69.8 °F - 66.2 °F 88% 30.00 in 6.2 mi Calm Calm - N/A   Partly Cloudy
8:00 AM 73.4 °F - 66.2 °F 78% 30.02 in 5.6 mi Variable 2.3 mph - N/A   Partly Cloudy
9:00 AM 77.0 °F - 66.2 °F 69% 30.02 in 6.2 mi Variable 2.3 mph - N/A   Partly Cloudy
10:00 AM 80 °F - 68 °F 60% 29.91 in 9 mi North 4.5 mph - -   Haze
10:00 AM 80.6 °F 83.2 °F 68.0 °F 65% 30.01 in 6.2 mi North 4.6 mph - N/A   Partly Cloudy
11:00 AM 82.4 °F 85.4 °F 68.0 °F 62% 30.00 in 6.2 mi North 5.8 mph - N/A   Partly Cloudy
12:00 PM 84.2 °F 87.3 °F 68.0 °F 58% 29.97 in 6.2 mi North 8.1 mph - N/A   Partly Cloudy
1:00 PM 86 °F - 71 °F 52% 29.83 in 11 mi Calm Calm - -   Partly Cloudy
1:00 PM 86.0 °F 91.8 °F 71.6 °F 62% 29.94 in 6.2 mi North 6.9 mph - N/A   Scattered Clouds
3:00 PM 86.0 °F 89.4 °F 68.0 °F 55% 29.88 in 6.2 mi North 6.9 mph - N/A   Scattered Clouds
4:00 PM 85 °F - 69 °F 51% 29.77 in 11 mi North 4.5 mph - -   Partly Cloudy
4:00 PM 86.0 °F 90.4 °F 69.8 °F 58% 29.88 in 6.2 mi North 6.9 mph - N/A   Scattered Clouds
5:00 PM 84.2 °F 88.4 °F 69.8 °F 62% 29.88 in 6.2 mi North 6.9 mph - N/A   Partly Cloudy
6:00 PM 80.6 °F 83.2 °F 68.0 °F 65% 29.88 in - North - - N/A   Partly Cloudy
7:00 PM 78 °F - 70 °F 71% 29.83 in 11 mi Calm Calm - -   Scattered Clouds
7:00 PM 78.8 °F - 69.8 °F 74% 29.92 in 6.2 mi Calm Calm - N/A   Partly Cloudy
8:00 PM 77.0 °F - 69.8 °F 78% 29.93 in 6.2 mi Calm Calm - N/A   Partly Cloudy
9:00 PM 77.0 °F - 69.8 °F 78% 29.98 in 6.2 mi Calm Calm - N/A   Partly Cloudy
10:00 PM 76 °F - 71 °F 79% 29.89 in 9 mi Calm Calm - -   Partly Cloudy
10:00 PM 75.2 °F - 71.6 °F 89% 29.99 in 6.2 mi Calm Calm - N/A   Scattered Clouds
11:00 PM 75.2 °F - 71.6 °F 89% 30.00 in 6.2 mi Calm Calm - N/A   Scattered Clouds